Theta_e
315 314 314 311 311 311 308 306 305 307 306 304 306 304 304 304 303 304 302 302 304 305 307 309 308 308 307 307 306 307 306 306 306 306 305 305 305 305 305 304 303 303
311 310 308 309 306 303 306 308 306 308 305 304 304 303 302 303 301 301 300 302 304 306 307 307 307 307 306 305 304 304 304 304 304 303 303 302 302 302 302 302 302 301
307 307 308 308 308 306 306 305 306 305 305 302 303 303 302 301 299 299 298 300 301 299 300 302 302 302 303 303 304 303 302 302 302 301 302 301 301 301 301 302 301 301
307 308 309 308 307 306 305 305 303 302 302 302 301 300 300 299 300 298 297 295 296 293 293 294 293 294 294 294 295 296 299 299 299 300 299 298 298 299 298 298 298 298
307 307 307 308 307 306 305 306 303 303 302 300 297 297 299 298 297 295 292 290 291 290 290 290 291 291 291 291 292 292 293 294 295 296 295 294 295 296 295 294 292 292
306 307 306 306 305 305 304 303 302 302 301 301 299 297 297 295 293 290 290 290 289 290 289 289 288 287 288 289 290 289 289 289 287 289 289 289 290 292 294 292 292 291
307 307 305 303 301 301 301 299 300 301 301 298 295 294 292 291 289 289 289 289 288 288 289 289 289 288 287 288 289 289 289 288 288 288 289 289 289 288 287 288 288 288
306 305 304 303 300 298 298 296 296 297 295 294 294 288 289 289 288 287 288 288 289 290 289 290 292 295 292 293 293 292 291 293 290 290 289 285 285 285 285 285 286 285
301 299 300 298 296 293 293 292 291 291 292 293 290 288 286 288 287 287 288 289 290 291 292 292 292 291 290 291 290 290 289 286 286 286 285 284 286 285 286 285 286 285
298 296 297 296 294 292 291 290 290 290 289 290 288 288 288 287 288 288 289 290 289 288 287 285 284 284 286 286 286 285 286 286 285 285 285 285 285 285 285 285 285 286
295 295 296 295 293 291 291 289 289 288 288 289 288 288 288 287 286 286 286 288 286 285 285 285 284 284 285 285 284 285 285 285 284 284 283 284 283 284 284 285 285 284
293 293 293 292 291 290 290 288 287 288 288 287 289 288 287 287 286 286 285 283 284 284 284 284 284 284 284 284 284 283 283 283 284 284 283 283 283 283 283 283 284 283
292 292 291 290 289 288 287 287 287 287 288 287 286 287 287 286 286 286 285 284 283 284 284 284 283 283 283 283 283 283 283 283 283 282 282 282 282 282 283 283 283 283
290 289 288 288 287 286 287 286 286 286 286 285 286 287 287 287 287 286 284 285 285 285 284 284 285 284 284 283 283 283 283 282 282 283 281 282 283 283 283 282 282 282
286 286 286 286 286 287 286 286 286 286 285 285 285 286 286 285 286 286 286 285 284 284 284 284 285 285 284 284 283 283 282 283 283 282 282 282 281 281 282 282 281 281
286 286 286 286 287 287 286 286 286 285 285 285 285 285 284 284 285 284 284 284 284 284 284 284 284 284 286 289 287 283 283 282 282 282 282 281 281 280 280 281 281 281
286 286 286 286 286 286 285 285 285 285 285 285 284 284 284 284 284 284 283 283 283 283 283 283 283 284 289 292 291 289 283 282 282 282 281 281 281 281 281 281 281 280
286 286 286 285 285 285 285 284 284 284 284 284 284 283 283 283 283 283 283 282 282 282 282 283 284 289 291 291 291 290 286 282 282 281 281 281 280 280 280 280 280 280
286 286 285 285 285 284 284 284 284 284 283 283 283 283 282 283 282 282 282 282 282 281 281 282 283 290 291 291 291 290 288 284 281 281 281 280 280 280 279 279 279 279
285 285 285 284 284 283 283 283 283 283 283 283 282 282 282 282 281 281 281 281 281 281 281 282 283 288 290 289 289 288 287 284 281 281 280 280 280 279 279 278 278 277
285 285 284 283 283 283 283 282 282 282 282 282 282 282 282 281 281 280 280 280 280 280 281 282 284 289 289 288 288 287 286 283 280 280 279 279 279 278 277 277 278 277
284 284 283 283 282 282 282 282 282 282 281 281 280 280 280 280 279 280 279 279 279 280 280 280 283 288 288 287 286 285 284 279 279 278 278 278 277 277 277 277 277 276
284 284 283 282 282 282 282 282 281 280 280 280 280 280 280 280 279 279 278 279 279 279 279 280 282 286 287 286 285 284 281 277 276 275 275 274 276 276 276 276 276 276
284 283 283 282 282 282 282 281 281 280 280 280 281 280 279 279 279 278 278 279 279 278 279 279 279 283 286 286 285 283 280 277 275 274 273 273 273 275 275 275 276 278
283 283 283 282 282 282 281 280 280 280 279 279 280 280 279 279 279 279 278 278 278 278 279 278 278 281 285 284 284 283 279 275 274 272 273 274 274 274 274 273 274 277
282 282 282 282 281 280 280 280 278 277 278 278 278 279 278 278 278 278 277 277 278 278 278 278 278 278 281 284 283 283 281 275 272 274 276 275 275 273 270 271 274 274
Wind_Speed
9 7 8 7 7 7 7 7 5 7 5 5 6 5 5 3 2 3 3 2 2 2 2 3 3 3 4 4 4 3 3 3 3 2 2 4 3 4 3 3 3 3
8 8 6 6 5 4 4 6 7 7 7 6 5 5 4 5 3 4 4 4 3 3 4 4 3 3 3 3 3 2 2 2 3 2 5 5 3 5 4 3 3 2
7 7 8 9 8 7 7 5 6 6 6 6 6 5 5 5 5 5 4 4 5 4 4 4 5 3 4 4 3 3 3 3 4 2 6 5 5 5 4 3 4 5
8 9 9 8 8 8 7 7 5 6 5 6 5 5 6 5 6 5 5 5 6 5 3 5 5 4 5 5 6 5 5 5 3 5 5 4 4 4 4 4 4 5
9 7 6 7 7 8 8 8 7 6 6 6 5 5 7 6 6 5 5 4 5 5 5 5 4 5 4 5 5 6 5 5 3 3 5 4 3 4 3 4 4 4
6 7 8 8 8 9 7 7 7 7 7 6 6 5 6 6 6 6 5 6 5 5 5 5 5 4 4 5 6 6 4 5 3 5 5 4 3 4 3 4 4 4
8 8 8 7 7 6 7 6 6 7 6 6 6 5 6 6 6 6 5 6 6 5 5 5 5 4 4 5 6 6 5 4 4 5 5 3 3 3 3 3 2 1
8 6 7 7 7 6 7 7 6 7 7 6 7 4 5 6 6 6 5 6 6 5 5 4 4 5 4 5 6 5 4 4 4 5 4 3 3 2 1 1 2 2
7 7 7 7 8 6 7 7 6 6 6 8 7 5 3 5 6 6 6 6 6 5 6 6 6 6 5 6 6 6 6 4 4 4 4 3 2 2 3 3 4 4
7 7 8 7 8 6 8 6 6 6 5 7 7 5 6 4 5 6 6 7 7 6 6 6 6 6 6 5 5 5 4 4 3 3 3 3 3 3 4 4 4 4
7 7 8 7 7 6 8 7 6 6 5 8 7 6 6 6 5 5 7 7 7 7 7 6 6 5 6 4 4 3 3 4 3 3 3 3 3 2 2 2 3 2
7 6 8 8 8 7 7 7 7 6 7 5 7 8 6 5 7 5 7 7 6 6 6 6 5 6 6 5 4 3 4 4 3 4 3 3 3 2 2 2 2 2
7 7 7 7 7 7 6 6 6 6 7 7 5 7 7 6 5 6 4 7 7 7 7 7 7 6 5 4 4 4 4 4 4 3 2 2 1 1 1 1 1 1
6 6 6 7 6 6 6 6 6 6 6 6 6 7 7 6 7 7 6 6 6 7 6 6 6 6 5 5 4 4 4 4 3 3 2 2 1 1 1 2 2 2
6 5 6 7 7 7 7 7 6 6 6 6 6 6 5 6 5 7 9 8 6 7 7 7 7 5 4 4 4 3 3 4 4 4 3 3 3 3 3 3 3 3
6 6 6 7 7 8 7 7 7 7 7 7 6 6 6 6 6 6 7 8 8 7 7 7 6 3 4 6 5 4 4 4 4 3 3 4 4 3 3 3 3 3
7 6 6 7 6 6 6 7 7 7 7 7 7 6 7 6 7 8 7 7 8 8 8 5 3 3 6 6 7 7 4 4 5 4 4 4 4 5 5 5 4 3
8 8 8 7 7 8 7 6 6 6 7 7 7 7 6 6 8 8 8 7 8 7 7 5 4 6 7 7 8 9 7 5 5 4 4 4 4 4 4 4 5 6
8 9 9 8 8 8 8 7 7 6 7 7 7 6 7 8 7 8 8 7 8 8 7 5 4 7 8 8 10 11 10 6 5 4 5 4 4 4 4 4 4 4
8 9 9 8 8 8 8 8 7 7 5 5 6 6 7 8 7 8 7 7 7 8 7 5 5 7 10 11 11 11 10 7 5 5 5 5 4 4 4 3 3 3
8 9 9 8 8 8 8 7 7 6 6 6 6 7 8 9 9 8 7 7 6 6 7 6 5 9 10 11 12 12 11 7 5 5 5 5 4 3 3 2 3 3
10 10 9 9 9 8 8 8 7 8 8 6 6 5 5 6 5 7 8 7 6 7 8 7 4 9 10 12 13 12 10 5 5 5 5 4 4 2 2 2 2 3
9 11 10 10 9 9 9 9 9 7 6 5 8 6 7 6 6 5 6 7 7 6 8 6 5 7 10 12 12 12 7 5 4 4 4 3 3 1 1 2 2 2
9 10 11 10 10 10 10 8 6 5 6 5 8 9 7 6 7 7 5 6 7 6 6 7 5 5 10 11 12 12 8 5 4 5 4 2 1 3 1 1 2 4
8 9 10 10 10 9 9 9 8 8 5 5 5 6 7 6 6 8 7 6 5 6 6 7 5 5 8 10 11 11 7 4 5 5 3 2 1 1 2 1 2 3
7 9 9 9 10 8 7 7 6 7 7 7 5 6 7 6 6 7 8 6 5 5 5 5 5 4 5 10 9 10 10 6 4 4 3 1 1 2 2 3 2 3
Wind_Direction
184 184 185 181 186 183 173 168 173 161 167 161 155 173 161 153 142 122 121 83 81 96 104 139 130 93 110 108 79 76 58 82 69 24 96 100 112 121 122 112 98 107
185 178 170 165 154 154 166 167 162 157 159 160 153 144 139 116 73 96 103 111 105 104 111 102 96 106 116 107 119 115 121 75 74 3 61 53 33 43 43 28 30 48
164 162 162 166 168 167 163 159 148 148 144 149 134 127 124 118 109 90 96 103 93 67 56 81 86 69 82 79 75 85 81 73 60 63 76 62 53 67 55 56 57 51
166 165 162 158 153 150 148 136 132 126 126 125 130 132 119 105 100 97 90 86 98 88 85 76 71 54 54 69 84 68 78 73 53 80 92 74 56 63 47 54 49 47
156 149 146 142 140 139 140 137 141 138 125 124 116 114 110 113 108 104 100 90 101 100 86 84 76 76 81 76 83 87 68 72 38 85 83 78 50 64 48 59 53 44
138 141 142 140 143 140 140 138 139 127 122 126 130 114 113 117 118 120 120 113 102 104 95 87 84 71 84 92 84 81 85 74 45 76 76 76 70 48 52 58 57 43
138 134 130 125 123 128 127 129 128 127 128 133 120 121 127 122 124 127 124 119 113 108 115 117 109 98 94 97 90 88 79 91 72 78 83 60 67 41 36 70 73 68
132 126 125 120 120 124 125 130 134 130 132 130 123 137 133 129 126 129 123 123 117 121 119 116 108 99 97 94 98 92 82 81 85 92 101 98 86 74 341 20 33 42
126 127 125 127 125 129 129 131 129 129 138 126 125 129 114 125 133 129 129 121 115 117 116 113 110 105 98 100 103 112 117 113 118 114 111 100 65 9 7 15 30 17
127 130 131 135 133 137 131 132 132 130 126 119 127 126 118 104 115 125 122 123 127 126 124 117 99 91 95 96 109 118 111 99 72 66 63 64 60 30 20 35 32 12
135 141 140 138 134 135 132 132 130 126 123 127 125 120 124 120 103 116 123 132 129 131 121 97 98 99 93 81 66 66 88 97 83 77 64 61 60 50 40 54 33 18
145 143 142 139 137 135 136 134 130 129 129 127 133 132 133 131 131 131 122 123 122 117 110 105 98 87 86 98 100 100 90 81 74 68 63 49 32 18 22 52 82 3
148 147 141 140 139 135 129 129 131 134 134 138 138 135 136 133 133 125 127 116 118 108 102 106 101 102 105 103 91 76 79 77 67 59 60 45 338 307 323 24 60 24
143 139 136 133 128 127 129 129 130 133 133 132 133 133 137 140 138 127 120 106 103 100 104 101 94 84 80 78 82 96 101 101 104 121 115 107 90 35 66 54 51 39
131 128 124 126 129 128 131 136 136 133 131 132 131 127 127 131 131 125 115 102 93 94 90 82 82 86 98 112 113 126 137 132 142 133 128 118 94 67 55 59 45 43
131 128 132 132 134 138 142 141 137 136 134 132 130 129 130 131 119 108 108 113 108 93 83 81 82 89 122 143 142 138 134 124 113 102 89 75 70 63 59 54 45 32
134 136 135 138 137 132 138 137 136 136 133 130 131 134 131 126 118 111 108 108 106 104 97 93 100 115 115 111 121 124 120 108 97 85 72 65 53 46 29 11 16 20
147 145 144 145 146 147 141 133 129 132 135 136 137 131 126 118 109 111 111 110 106 103 104 106 102 106 106 102 101 101 99 97 93 90 82 69 59 48 34 19 5 1
151 152 149 152 154 144 135 134 137 136 141 145 141 137 125 115 119 116 116 115 116 115 110 102 93 95 94 87 83 84 86 87 82 82 75 68 58 51 36 21 5 353
154 151 152 153 145 136 135 138 144 151 149 141 133 128 120 118 117 118 123 123 122 118 111 101 88 83 84 83 80 77 77 77 74 74 70 62 54 41 33 13 353 341
156 155 150 148 141 136 139 145 148 146 145 151 143 138 136 135 136 129 127 125 121 115 107 93 84 86 87 87 83 79 74 72 67 69 65 57 44 40 31 5 342 342
159 154 150 146 144 143 148 152 155 158 150 148 128 112 103 109 99 111 123 121 119 114 105 94 79 86 88 91 88 82 78 69 72 70 73 63 35 26 8 346 345 340
164 156 152 151 151 152 156 158 156 151 144 144 127 130 129 123 124 113 118 118 117 113 109 104 84 84 94 96 92 87 80 76 75 74 74 64 22 345 335 346 328 338
164 158 153 154 158 162 159 155 145 135 144 158 142 142 131 131 126 110 99 104 111 112 115 113 99 80 97 97 96 90 90 89 85 83 64 55 23 331 322 320 302 308
157 155 155 156 160 160 156 153 154 149 141 129 127 120 124 127 119 112 106 95 99 108 112 107 104 72 88 91 92 97 93 84 79 75 80 45 8 290 284 228 265 268
155 154 156 158 156 147 146 143 133 129 138 133 125 126 128 122 115 115 114 112 108 104 96 98 98 77 83 92 90 87 88 84 88 90 76 48 278 235 243 282 244 234